Cumberland, WV

1:25 PM EDT on April 30, 2017 (GMT -0400)
Greater Cumberland Regional

Weather History for KCBE - January, 2013

Change the Weather History Date:

Monday, January 7, 2013

  Actual Average (KMRB) Record (KMRB)
Temperature  
Mean Temperature 32 °F -  
Max Temperature 39 °F 39 °F 70 °F (2008)
Min Temperature 24 °F 23 °F 1 °F (2014)
Degree Days  
Heating Degree Days 32    
Moisture  
Dew Point 27 °F    
Average Humidity 75    
Maximum Humidity 100    
Minimum Humidity 61    
Precipitation  
Precipitation 0.00 in - - ()
Sea Level Pressure  
Sea Level Pressure 30.39 in    
Wind  
Wind Speed 5 mph (WNW)    
Max Wind Speed 13 mph    
Max Gust Speed 22 mph    
Visibility 9 miles    
Events      
Averages and records for this station are not official NWS values.
T = Trace of Precipitation, MM = Missing Value Source: NWS Daily Summary

Daily Weather History Graph

Daily Weather History Graph

Search for Another Location

Airport or City:

Trip Planner

Search our weather history database for the weather conditions in past years. The results will help you decide how hot, cold, wet, or windy it might be!

Date:

Astronomy

Jan. 07, 2013 Rise Set
Actual Time 7:35 AM EST 5:07 PM EST
Civil Twilight 7:05 AM EST 5:37 PM EST
Nautical Twilight 6:32 AM EST 6:10 PM EST
Astronomical Twilight 5:59 AM EST 6:43 PM EST
Moon 2:57 AM EST (1/7) 1:16 PM EST (1/7)
Length of Visible Light 10h 31m
Length of Day
9h 31m
Waning Crescent, 23% of the Moon is Illuminated
Jan 7
Waning Crescent
Jan 11
New
Jan 18
First Quarter
Jan 26
Full
Feb 3
Last Quarter

Hourly Weather History & Observations

Time (EST) Temp. Windchill Dew Point Humidity Pressure Visibility Wind Dir Wind Speed Gust Speed Precip Events Conditions
12:07 AM 37.4 °F - 32.0 °F 81% 30.20 in 10.0 mi Calm Calm - N/A   Mostly Cloudy
12:29 AM 37.4 °F 32.8 °F 32.0 °F 81% 30.20 in 10.0 mi NW 5.8 mph - N/A   Overcast
12:50 AM 37.4 °F 34.9 °F 32.0 °F 81% 30.22 in 10.0 mi WNW 3.5 mph - N/A   Overcast
1:11 AM 37.4 °F 33.8 °F 32.0 °F 81% 30.22 in 10.0 mi NW 4.6 mph - N/A   Overcast
1:33 AM 37.4 °F 30.8 °F 30.2 °F 75% 30.23 in 10.0 mi WNW 9.2 mph 20.7 mph N/A   Overcast
1:54 AM 37.4 °F 32.1 °F 30.2 °F 75% 30.24 in 10.0 mi WNW 6.9 mph 18.4 mph N/A   Overcast
2:15 AM 37.4 °F 34.9 °F 30.2 °F 75% 30.25 in 10.0 mi NNW 3.5 mph - N/A   Overcast
2:36 AM 37.4 °F 30.3 °F 30.2 °F 75% 30.26 in 10.0 mi NW 10.4 mph - N/A   Overcast
2:58 AM 37.4 °F 30.3 °F 30.2 °F 75% 30.27 in 10.0 mi WNW 10.4 mph 21.9 mph N/A   Overcast
3:19 AM 37.4 °F 29.3 °F 30.2 °F 75% 30.28 in 10.0 mi NW 12.7 mph 21.9 mph N/A   Overcast
3:40 AM 37.4 °F 33.8 °F 28.4 °F 70% 30.29 in 10.0 mi NW 4.6 mph - N/A   Overcast
4:02 AM 37.4 °F 34.9 °F 28.4 °F 70% 30.30 in 10.0 mi NW 3.5 mph - N/A   Overcast
4:23 AM 35.6 °F 28.0 °F 28.4 °F 75% 30.31 in 10.0 mi NNW 10.4 mph 17.3 mph N/A   Overcast
4:44 AM 35.6 °F 28.0 °F 28.4 °F 75% 30.31 in 10.0 mi NW 10.4 mph 17.3 mph N/A   Overcast
5:06 AM 35.6 °F 28.6 °F 28.4 °F 75% 30.32 in 10.0 mi NW 9.2 mph 20.7 mph N/A   Overcast
5:27 AM 35.6 °F 30.7 °F 26.6 °F 70% 30.33 in 10.0 mi WNW 5.8 mph - N/A   Overcast
5:48 AM 35.6 °F 30.7 °F 26.6 °F 70% 30.34 in 10.0 mi WNW 5.8 mph - N/A   Overcast
6:09 AM 35.6 °F 31.7 °F 26.6 °F 70% 30.35 in 10.0 mi NW 4.6 mph - N/A   Overcast
6:31 AM 35.6 °F 29.9 °F 26.6 °F 70% 30.36 in 10.0 mi NW 6.9 mph - N/A   Overcast
6:52 AM 35.6 °F 31.7 °F 26.6 °F 70% 30.37 in 10.0 mi NW 4.6 mph - N/A   Overcast
7:13 AM 35.6 °F 29.9 °F 26.6 °F 70% 30.38 in 10.0 mi NNW 6.9 mph - N/A   Overcast
7:35 AM 35.6 °F 32.8 °F 26.6 °F 70% 30.39 in 10.0 mi West 3.5 mph - N/A   Overcast
7:56 AM 35.6 °F 32.8 °F 26.6 °F 70% 30.40 in 10.0 mi WNW 3.5 mph - N/A   Overcast
8:17 AM 35.6 °F - 26.6 °F 70% 30.42 in 10.0 mi Calm Calm - N/A   Overcast
8:38 AM 35.6 °F 31.7 °F 26.6 °F 70% 30.43 in 10.0 mi WNW 4.6 mph - N/A   Overcast
9:00 AM 35.6 °F 28.6 °F 26.6 °F 70% 30.44 in 10.0 mi West 9.2 mph 16.1 mph N/A   Overcast
9:21 AM 35.6 °F 28.6 °F 26.6 °F 70% 30.45 in 10.0 mi West 9.2 mph - N/A   Overcast
9:42 AM 35.6 °F 29.9 °F 26.6 °F 70% 30.46 in 10.0 mi West 6.9 mph - N/A   Overcast
10:03 AM 35.6 °F 30.7 °F 26.6 °F 70% 30.48 in 10.0 mi West 5.8 mph - N/A   Overcast
10:25 AM 35.6 °F 29.2 °F 26.6 °F 70% 30.48 in 10.0 mi West 8.1 mph - N/A   Overcast
10:46 AM 35.6 °F 27.5 °F 26.6 °F 70% 30.48 in 10.0 mi West 11.5 mph - N/A   Overcast
11:07 AM 35.6 °F 28.0 °F 26.6 °F 70% 30.48 in 10.0 mi West 10.4 mph - N/A   Overcast
11:28 AM 35.6 °F 29.9 °F 26.6 °F 70% 30.48 in 10.0 mi West 6.9 mph - N/A   Overcast
11:50 AM 35.6 °F 27.5 °F 26.6 °F 70% 30.47 in 10.0 mi West 11.5 mph 17.3 mph N/A   Overcast
12:11 PM 35.6 °F 29.9 °F 24.8 °F 65% 30.45 in 10.0 mi West 6.9 mph - N/A   Overcast
12:32 PM 37.4 °F 30.8 °F 26.6 °F 65% 30.45 in 10.0 mi West 9.2 mph - N/A   Overcast
12:53 PM 37.4 °F 32.1 °F 26.6 °F 65% 30.44 in 10.0 mi West 6.9 mph - N/A   Scattered Clouds
1:15 PM 39.2 °F 35.9 °F 26.6 °F 61% 30.43 in 10.0 mi WSW 4.6 mph - N/A   Scattered Clouds
1:36 PM 37.4 °F 32.1 °F 26.6 °F 65% 30.43 in 10.0 mi WSW 6.9 mph - N/A   Scattered Clouds
1:57 PM 37.4 °F 32.1 °F 26.6 °F 65% 30.43 in 10.0 mi WSW 6.9 mph - N/A   Scattered Clouds
2:18 PM 39.2 °F 35.9 °F 26.6 °F 61% 30.43 in 10.0 mi WSW 4.6 mph - N/A   Scattered Clouds
2:40 PM 39.2 °F 35.9 °F 26.6 °F 61% 30.42 in 10.0 mi NNW 4.6 mph - N/A   Clear
3:01 PM 37.4 °F 33.8 °F 26.6 °F 65% 30.43 in 10.0 mi West 4.6 mph - N/A   Clear
3:22 PM 39.2 °F - 26.6 °F 61% 30.44 in 10.0 mi Calm Calm - N/A   Clear
3:43 PM 39.2 °F - 26.6 °F 61% 30.43 in 10.0 mi Calm Calm - N/A   Clear
4:05 PM 37.4 °F - 26.6 °F 65% 30.43 in 10.0 mi Calm Calm - N/A   Clear
4:26 PM 37.4 °F - 26.6 °F 65% 30.43 in 10.0 mi Calm Calm - N/A   Clear
4:47 PM 35.6 °F 31.7 °F 26.6 °F 70% 30.43 in 10.0 mi SSW 4.6 mph - N/A   Clear
5:08 PM 35.6 °F 32.8 °F 26.6 °F 70% 30.43 in 10.0 mi South 3.5 mph - N/A   Clear
5:30 PM 33.8 °F - 26.6 °F 75% 30.42 in 10.0 mi Calm Calm - N/A   Clear
5:51 PM 33.8 °F - 26.6 °F 75% 30.42 in 10.0 mi Calm Calm - N/A   Clear
6:12 PM 33.8 °F - 26.6 °F 75% 30.43 in 7.0 mi Calm Calm - N/A   Clear
6:33 PM 32.0 °F - 26.6 °F 80% 30.43 in 10.0 mi Calm Calm - N/A   Clear
6:55 PM 32.0 °F - 26.6 °F 80% 30.43 in 10.0 mi Calm Calm - N/A   Clear
7:16 PM 32.0 °F - 26.6 °F 80% 30.43 in 10.0 mi Calm Calm - N/A   Clear
7:37 PM 32.0 °F - 26.6 °F 80% 30.42 in 10.0 mi Calm Calm - N/A   Clear
7:59 PM 30.2 °F - 26.6 °F 86% 30.42 in 10.0 mi Calm Calm - N/A   Clear
8:20 PM 30.2 °F - 26.6 °F 86% 30.42 in 7.0 mi Calm Calm - N/A   Clear
8:41 PM 30.2 °F - 26.6 °F 86% 30.42 in 7.0 mi Calm Calm - N/A   Clear
9:02 PM 28.4 °F - 26.6 °F 93% 30.42 in 7.0 mi Calm Calm - N/A   Clear
9:24 PM 28.4 °F - 26.6 °F 93% 30.42 in 7.0 mi Calm Calm - N/A   Clear
9:45 PM 28.4 °F - 26.6 °F 93% 30.41 in 7.0 mi Calm Calm - N/A   Clear
10:06 PM 28.4 °F - 26.6 °F 93% 30.41 in 7.0 mi Calm Calm - N/A   Clear
10:28 PM 26.6 °F - 26.6 °F 100% 30.40 in 7.0 mi Calm Calm - N/A   Clear
10:49 PM 26.6 °F - 24.8 °F 93% 30.41 in 7.0 mi Calm Calm - N/A   Clear
11:10 PM 26.6 °F - 26.6 °F 100% 30.40 in 5.0 mi Calm Calm - N/A   Clear
11:31 PM 26.6 °F - 26.6 °F 100% 30.39 in 4.0 mi Calm Calm - N/A   Clear
11:53 PM 24.8 °F - 24.8 °F 100% 30.39 in 3.0 mi Calm Calm - N/A   Unknown